Regional Weather Roundup
Issued by NWS

Home | Current Version | Previous Version | Graphics & Text | Print | Product List | Glossary On
Versions: 1 2 3 4 5 6 7 8 9 10 11 12 13 14 15 16 17 18 19 20 21 22 23 24 25 26 27 28 29 30 31 32 33 34 35 36 37 38 39 40 41 42 43 44 45 46 47 48 49 50
000
ASUS43 KLOT 151908
RWRIL

ILLINOIS REGIONAL WEATHER ROUNDUP
NATIONAL WEATHER SERVICE CHICAGO/ROMEOVILLE IL
100 PM CST FRI DEC 15 2017

NOTE: "FAIR" INDICATES FEW OR NO CLOUDS BELOW 12,000 FEET WITH NO
SIGNIFICANT WEATHER AND/OR OBSTRUCTIONS TO VISIBILITY.

* THESE STATIONS ARE NOT UNDER NWS QUALITY CONTROL. THEY ALSO MAY NOT
  REPORT WEATHER SUCH AS PRECIPITATION OR FOG.

ILZ001-002-007-009-015-016-024-152000-
NORTHWEST ILLINOIS

CITY           SKY/WX    TMP DP  RH WIND       PRES   REMARKS
MOLINE         CLOUDY    36  22  56 SW12      29.94F WCI  28
STERLING*      MIX PCPN  32  22  66 SW13G22   29.92F WCI  22
SAVANNA*       CLOUDY    32  23  70 W12       29.91F WCI  23
$$

ILZ003-004-008-010-011-017-018-152000-
NORTH CENTRAL ILLINOIS

CITY           SKY/WX    TMP DP  RH WIND       PRES   REMARKS
ROCKFORD       FLURRIES  30  22  72 W14       29.92F WCI  19
FREEPORT*      CLOUDY    30  23  77 SW14G20   29.91F WCI  19
ROCHELLE*      CLOUDY    30  24  75 W20G25    29.92S WCI  18
DE KALB*       MIX PCPN  32  22  66 W14G20    29.90F WCI  22
PERU*          CLOUDY    32  18  57 W21G29    29.95F WCI  20
$$

ILZ005-006-012>014-019>023-152000-
NORTHEAST ILLINOIS

CITY           SKY/WX    TMP DP  RH WIND       PRES   REMARKS
CHICAGO-OHARE  CLOUDY    31  17  56 W14       29.89F WCI  21
CHICAGO-MIDWAY CLOUDY    32  17  54 W14G24    29.91F WCI  22
AURORA         CLOUDY    34  21  59 W15       29.91F WCI  24
LANSING*       CLOUDY    32  19  58 W9G24     29.93R WCI  24
JOLIET*        CLOUDY    34  20  57 W8        29.93F WCI  27
WAUKEGAN       CLOUDY    30  16  56 W8G21     29.86F WCI  22
DUPAGE AIRPORT CLOUDY    31  20  63 W12       29.89F WCI  22
KANKAKEE*      CLOUDY    34  17  49 NW18G26   29.96S WCI  23
WHEELING       CLOUDY    32  18  56 W15       29.90F WCI  22
MORRIS*        CLOUDY    34  19  53 W17G23    29.92F WCI  24
ROMEOVILLE*    CLOUDY    32  20  60 W14       29.92F WCI  22
NORTHERLY ISL    N/A     31  15  52 W14         N/A  WCI  21
$$

LMZ740>746-152000-
SOUTHERN LAKE MICHIGAN

STATION/POSITION SKY/WX   TEMP    WIND        PRES    VSBY  WAVE
                          AIR SEA DIR/SP/G                  HT/PER
                          (F)     (DEG/KT/KT) (MB)    (MI)  (FT/S)
HARRISON CRIB              31     290/ 20/ 24   N/A
BURNHAM HARBOR             31     280/ 15/ 19   N/A
CALUMET HARBOR             31     260/  9/ 20 1012.4F
BURNS HARBOR               30     280/ 16/ 20 1013.2F
MICHIGAN CITY              29     270/ 28/ 32   N/A
$$

ILZ025>027-034>036-040-047-049-050-058-095>099-152000-
WEST-CENTRAL ILLINOIS

CITY           SKY/WX    TMP DP  RH WIND       PRES   REMARKS
QUINCY         CLOUDY    39  20  46 SW12      30.02F WCI  32
GALESBURG*     CLOUDY    35  23  60 SW14      29.97F WCI  26
MACOMB*        CLOUDY    37  21  52 W15G22    30.02F WCI  28
JACKSONVILLE*  CLOUDY    38  18  44 W8G18     30.03F WCI  32
PITTSFIELD*    CLOUDY    39  22  50 W10       30.05F WCI  33
$$

ILZ028>032-037-038-041>044-048-051>054-059>061-152000-
CENTRAL ILLINOIS

CITY           SKY/WX    TMP DP  RH WIND       PRES   REMARKS
PONTIAC        PTSUNNY   36  19  49 W21G28    29.96F WCI  25
BLOOMINGTON    MOSUNNY   35  17  47 W15       29.98F WCI  25
DECATUR        PTSUNNY   36  19  50 W10       30.02F WCI  28
PEORIA         CLOUDY    36  20  52 W13       29.99F WCI  27
LACON*         CLOUDY    34  18  52 W15       29.97F WCI  24
LINCOLN*       MOSUNNY   38  21  51 W8        30.01F WCI  32
SPRINGFIELD    SUNNY     40  20  44 W12       30.03F
TAYLORVILLE    MOSUNNY   37  19  48 NW7G18    30.04F WCI  31
$$

ILZ033-039-045-046-055>057-062-063-152000-
EAST-CENTRAL ILLINOIS

CITY           SKY/WX    TMP DP  RH WIND       PRES   REMARKS
CHAMPAIGN      MOSUNNY   34  18  52 W15       30.01F WCI  24
DANVILLE*      PTSUNNY   31  16  53 W15G22    29.97F WCI  20
RANTOUL*       MOSUNNY   35  19  51 W14       29.99F WCI  26
MATTOON        CLOUDY    34  21  59 W14       30.03F WCI  25
PARIS*         CLOUDY    32  20  61 NW17G25   30.04S WCI  21
$$

ILZ079-100>102-152000-
SOUTHWEST ILLINOIS

CITY           SKY/WX    TMP DP  RH WIND       PRES   REMARKS
ALTON          PTSUNNY   41  25  52 W14       30.06F
BELLEVILLE     MOSUNNY   43  25  48 W13       30.06F
SPARTA*        CLOUDY    41  29  61 NW9       30.09S
$$

ILZ064>066-069>071-074>076-080>082-084>086-088>090-092>094-152000-
SOUTH-CENTRAL ILLINOIS

CITY           SKY/WX    TMP DP  RH WIND       PRES   REMARKS
CARBONDALE     PTSUNNY   42  25  50 W10       30.09F
CAIRO*         MOSUNNY   43  26  50 SW9       30.12F
EFFINGHAM*     CLOUDY    36  27  70 W12       30.07F WCI  27
MARION         PTSUNNY   43  25  49 SW7G14    30.10F
MT. VERNON     CLOUDY    40  25  55 W10G17    30.08F
CENTRALIA*     PTSUNNY   40  28  62 W12       30.07S
SALEM*         PTSUNNY   42  26  53 W15G23    30.06F
METROPOLIS*    SUNNY     42  25  50 SW12      30.12F
$$

ILZ067-068-072-073-078-083-087-091-152000-
SOUTHEAST ILLINOIS

CITY           SKY/WX    TMP DP  RH WIND       PRES   REMARKS
LAWRENCEVILLE  CLOUDY    38  25  59 W14       30.06F WCI  30
FLORA*         CLOUDY    40  27  59 W16       30.06F
FAIRFIELD*     CLOUDY    39  26  57 SW6       30.06F
HARRISBURG*    CLOUDY    41  26  53 W8        30.09F
ROBINSON*      CLOUDY    34  25  68 W14       30.07R WCI  25
CARMI*         CLOUDY    40  25  56 W10G20    30.08F
$$

ABBREVIATIONS USED IN REMARKS
   TC - TEMPERATURE IN CELSIUS
  WCI - WIND CHILL INDEX
   HX - HEAT INDEX
  VSB - VISIBILITY
$$




USA.gov is the U.S. government's official web portal to all federal, state and local government web resources and services.